Location: Chandolas
(44.4033°N, 4.2533°E)
Time: 08:42:00
(UTC+00:00)

Okean-O - Pass Details

Date: 15 November 2019
Orbit: 639 x 641 km, 98.2° (Epoch: 06 December)

Event Time Altitude Azimuth Distance (km) Brightness Sun altitude
Rises 06:04:33 0° 18° (NNE) 2,954 6.0 -6.4°
Reaches altitude 10° 06:06:50 10° 24° (NNE) 2,040 5.3 -6.0°
Maximum altitude 06:11:09 48° 100° (E) 833 3.8 -5.3°
Drops below altitude 10° 06:15:25 10° 175° (S) 2,023 5.6 -4.6°
Sets 06:17:40 0° 181° (S) 2,927 6.3 -4.2°
